This is the latest recevied weather packets stored in our database for station/object WD7CGF. If no packets are shown the sender has not sent any weather packets the latest 10 day(s).
| Time | Temp. | Humidity | Pressure | Rain* | Wind** | Luminosity | Snow |
|---|---|---|---|---|---|---|---|
| 1777617491 | 8.33° C | 73% | 1017.6 hPa | 0 mm | - | - | - |
| 1777616897 | 8.89° C | 73% | 1017.5 hPa | 0 mm | - | - | - |
| 1777616301 | 8.89° C | 72% | 1017.5 hPa | 0 mm | - | - | - |
| 1777615709 | 9.44° C | 72% | 1017.7 hPa | 0 mm | - | - | - |
| 1777615101 | 9.44° C | 70% | 1017.7 hPa | 0 mm | - | - | - |
| 1777613897 | 10° C | 70% | 1017.6 hPa | 0 mm | - | - | - |
| 1777613303 | 10.56° C | 69% | 1017.6 hPa | 0 mm | - | - | - |
| 1777612709 | 10.56° C | 68% | 1017.6 hPa | 0 mm | - | - | - |
| 1777612097 | 11.11° C | 65% | 1017.7 hPa | 0 mm | - | - | - |
| 1777611505 | 12.22° C | 63% | 1017.5 hPa | 0 mm | - | - | - |
| 1777610896 | 12.78° C | 60% | 1017.5 hPa | 0 mm | - | - | - |
| 1777610305 | 13.33° C | 56% | 1017.3 hPa | 0 mm | - | - | - |
| 1777609697 | 13.33° C | 55% | 1017.1 hPa | 0 mm | - | - | - |
| 1777609104 | 13.89° C | 55% | 1017.1 hPa | 0 mm | - | - | - |
| 1777608510 | 14.44° C | 54% | 1017.2 hPa | 0 mm | - | - | - |
| 1777607896 | 15° C | 53% | 1017 hPa | 0 mm | - | - | - |
| 1777607305 | 15.56° C | 50% | 1017 hPa | 0 mm | - | - | - |
| 1777606692 | 16.67° C | 47% | 1016.8 hPa | 0 mm | - | - | - |
| 1777606101 | 17.22° C | 44% | 1016.5 hPa | 0 mm | - | - | - |
| 1777605509 | 17.78° C | 41% | 1016.5 hPa | 0 mm | - | - | - |
| 1777604894 | 18.33° C | 39% | 1016.6 hPa | 0 mm | - | - | - |
| 1777604303 | 18.89° C | 39% | 1016.5 hPa | 0 mm | - | - | - |
| 1777603692 | 19.44° C | 39% | 1016.5 hPa | 0 mm | - | - | - |
| 1777603104 | 20° C | 38% | 1016.4 hPa | 0 mm | - | - | - |
| 1777602492 | 20° C | 38% | 1016.4 hPa | 0 mm | - | - | - |
* Rain since midnight (hover to see other rain measurements)
** Current wind speed in m/s (hover to see current wind gust speed)